Regional Weather Roundup
Issued by NWS

Home | Current Version | Previous Version | Graphics & Text | Print | Product List | Glossary On
Versions: 1 2 3 4 5 6 7 8 9 10 11 12 13 14 15 16 17 18 19 20 21 22 23 24 25 26 27 28 29 30 31 32 33 34 35 36 37 38 39 40 41 42 43 44 45 46 47 48 49 50
000
ASUS43 KLSX 100657
RWRMO

WEATHER SUMMARY FOR MISSOURI
NATIONAL WEATHER SERVICE SPRINGFIELD MO
100 AM CST SAT DEC 10 2016

NOTE: "FAIR" INDICATES FEW OR NO CLOUDS BELOW 12,000 FEET WITH NO
       SIGNIFICANT WEATHER AND/OR OBSTRUCTIONS TO VISIBILITY.
       CURRENT SKY AND/OR WEATHER CONDITIONS ARE NOT AVAILABLE FOR
       CHILLICOTHE AND FARMINGTON.

MOZ001>031-035>038-043-044-053-054-100800-
...NORTHERN AND WESTERN MISSOURI...

CITY           SKY/WX    TMP DP  RH WIND       PRES   REMARKS
KANSAS CTY INT CLOUDY    27  11  51 SE5       30.49S WCI  22
LEE`S SUMMIT   CLOUDY    26  12  55 SE6       30.50S WCI  19
ST JOSEPH      CLOUDY    26  13  57 SE3       30.51S
CHILLICOTHE      N/A     25  12  58 CALM      30.55R

$$
MOZ066>068-077>081-088>096-101>105-100800-
...SOUTHWEST MISSOURI...

CITY           SKY/WX    TMP DP  RH WIND       PRES   REMARKS
SPRINGFIELD    CLOUDY    30  14  51 S10       30.47F WCI  21
JOPLIN         CLOUDY    31  17  56 SE3       30.49S

$$
MOZ032>034-039>042-045>050-055>058-069>072-100800-
...CENTRAL MISSOURI...

CITY           SKY/WX    TMP DP  RH WIND       PRES   REMARKS
COLUMBIA       NOT AVBL
JEFFERSON CITY CLOUDY    25  12  58 E5        30.55F WCI  19
ROLLA          CLOUDY    23  12  62 E6        30.51F WCI  16
SEDALIA        CLOUDY    26  11  52 SE6       30.53F WCI  19
WARRENSBURG    CLOUDY    27  14  59 E3        30.52F

$$
MOZ051-052-059>065-100800-
...EAST CENTRAL MISSOURI...

CITY           SKY/WX    TMP DP  RH WIND       PRES   REMARKS
ST LOUIS INTL  CLOUDY    26  14  60 CALM      30.57F

$$
MOZ072>076-082>087-097>100-106>115-100800-
...SOUTH CENTRAL AND SOUTHEAST MISSOURI...

CITY           SKY/WX    TMP DP  RH WIND       PRES   REMARKS
CAPE GIRARDEAU CLEAR     20  15  81 E3        30.59F
POPLAR BLUFF   CLEAR     21  19  92 CALM      30.58F
WEST PLAINS    CLEAR     24  12  60 S3        30.51F

$$


USA.gov is the U.S. government's official web portal to all federal, state and local government web resources and services.